Theta_e
305 305 305 306 306 305 306 305 305 305 304 305 305 306 306 306 307 307 307 307 306 302 300 301 303 307 307 305 307 307 305 307 309 307 307 307 307 307 307 307 308 309 309 310 312 311 312 313 312 311 311 311 313 312 312 313 316 319 322 328 331 329 328 329 329 328 327 329 327 324 324 322 320 319 318 318 319 319 321 322 325 331 332 332 335 337 337 337
305 305 305 305 305 305 305 305 305 304 305 305 305 306 306 306 306 306 306 305 304 301 300 300 303 307 305 303 305 304 306 309 309 307 307 306 305 305 304 304 306 307 308 310 311 311 312 312 311 312 311 311 312 312 312 312 314 318 323 327 329 328 327 327 328 327 328 329 327 322 321 319 319 320 319 322 325 325 327 327 328 331 334 334 336 337 337 337
304 304 304 304 304 305 305 305 305 305 306 306 306 306 305 304 304 303 302 301 301 301 303 303 303 306 304 302 303 302 307 310 308 306 305 305 305 305 303 303 305 307 308 310 310 311 312 313 313 313 313 312 311 311 311 312 314 316 321 324 325 324 325 326 327 327 327 328 327 322 319 317 317 318 320 325 327 327 329 331 331 331 333 335 336 337 337 336
304 304 304 304 304 305 305 305 306 306 306 305 304 303 302 302 301 301 300 301 303 305 307 305 303 304 302 302 302 302 308 310 306 304 304 305 306 306 305 302 303 305 307 309 310 311 312 313 313 312 312 311 310 310 310 311 314 314 318 321 321 322 323 325 325 326 326 328 328 322 318 317 316 316 317 321 325 327 330 332 334 333 334 335 335 336 336 335
304 304 304 304 305 305 305 306 305 304 303 302 301 301 301 301 301 301 301 304 306 307 307 305 302 302 301 302 301 304 310 308 304 304 304 305 306 307 306 304 303 305 307 309 310 311 312 312 312 311 311 310 310 310 310 311 312 314 317 318 319 320 321 321 323 325 325 327 327 321 319 317 316 316 314 316 319 324 330 333 333 332 331 331 332 334 334 334
304 304 304 304 304 305 305 306 304 302 301 301 301 301 301 301 302 302 302 303 304 306 306 303 302 301 301 302 302 307 309 306 304 304 304 305 306 306 306 305 305 306 308 309 310 311 312 312 312 312 311 310 310 310 310 311 311 313 314 316 317 317 319 319 320 323 325 326 324 320 318 317 316 315 314 316 316 317 327 332 328 323 320 320 321 323 323 325
304 305 304 304 304 305 304 305 304 301 301 301 301 301 302 302 302 302 302 302 303 305 304 302 301 301 301 302 306 309 307 304 304 304 304 305 305 305 305 305 305 307 308 309 311 312 312 312 311 312 311 309 308 309 310 311 311 312 312 314 315 316 320 321 322 323 323 323 320 317 316 315 315 314 315 318 318 317 322 326 321 316 315 316 315 315 315 315
304 305 304 303 303 303 303 304 303 301 301 301 301 301 302 302 302 302 302 302 302 303 303 302 301 302 301 304 309 310 306 304 304 304 304 305 305 305 304 304 306 307 308 308 310 311 312 313 312 311 311 309 308 307 310 311 312 311 311 314 315 318 321 322 323 322 319 318 316 316 316 314 313 314 314 316 321 321 319 317 315 313 313 313 312 312 312 312
304 304 304 302 302 301 301 302 302 301 301 300 301 301 302 302 302 302 302 302 302 302 302 301 302 301 302 308 311 308 305 303 304 304 304 304 305 305 304 305 307 307 307 308 309 310 311 312 311 311 311 311 310 308 309 311 312 312 311 315 318 321 321 322 325 321 317 315 315 315 315 314 314 314 313 315 322 321 314 313 312 311 311 310 310 310 310 311
304 304 303 302 300 300 301 301 301 301 300 300 300 300 300 300 301 302 302 302 302 302 302 301 302 302 305 310 308 305 304 303 304 304 304 304 304 305 305 305 306 307 308 308 309 309 310 311 312 312 312 313 313 312 311 311 313 314 313 317 320 320 321 322 324 320 316 314 314 314 313 313 313 315 314 314 318 316 312 313 311 310 309 309 309 309 310 310
304 303 302 301 300 300 300 300 300 300 299 299 299 299 299 300 300 301 302 302 302 302 302 302 302 302 308 310 305 304 304 303 304 304 304 304 304 306 305 305 305 307 309 309 307 306 306 309 310 313 313 313 313 313 314 315 315 315 315 318 319 319 320 321 321 317 315 314 313 313 313 313 313 315 315 313 312 312 312 311 310 310 309 308 308 308 309 309
303 302 301 300 299 299 300 300 300 300 299 299 299 299 300 300 300 301 301 301 302 302 303 304 303 305 309 308 304 304 303 303 304 304 304 304 305 306 306 305 305 307 309 309 307 305 305 306 307 311 314 312 312 312 315 316 316 316 315 319 319 318 319 320 320 317 315 315 314 315 315 313 314 314 315 313 310 309 310 309 310 309 308 308 307 307 307 308
303 301 300 299 299 299 300 300 300 300 300 299 299 300 300 300 301 301 301 301 302 302 303 305 305 307 309 306 303 304 303 303 304 304 305 304 305 306 306 306 306 308 308 307 307 306 306 306 307 311 314 314 313 313 315 315 316 316 316 318 319 319 319 318 318 318 316 316 315 318 317 314 313 313 313 314 310 308 309 308 309 308 307 307 307 306 306 306
302 300 299 299 298 299 299 300 300 300 300 300 300 300 300 300 301 301 300 301 302 302 304 306 306 309 309 304 303 303 302 303 304 304 305 305 305 306 306 306 308 307 305 305 306 306 307 308 309 312 315 315 314 314 314 315 316 316 316 318 319 320 319 315 315 318 319 318 314 315 316 314 312 311 311 312 309 307 308 307 307 307 307 306 306 306 305 305
300 299 298 298 298 298 299 300 300 300 300 300 300 301 301 300 300 301 301 301 302 302 304 305 305 308 307 303 303 303 303 303 304 304 304 305 305 306 306 306 308 306 304 305 306 306 307 308 310 314 316 315 314 314 313 315 316 315 315 317 318 320 318 314 313 317 319 316 312 314 315 314 311 309 309 309 308 307 308 307 307 306 305 306 306 305 304 304
299 298 298 298 298 298 299 299 299 300 300 300 301 301 301 300 301 302 302 301 302 304 305 304 303 305 305 303 302 303 303 303 304 305 305 305 306 306 307 307 307 305 304 305 305 306 308 309 311 314 316 315 315 314 313 315 315 314 315 316 318 319 317 314 312 315 316 314 313 314 313 312 309 308 308 308 308 308 308 307 306 306 305 305 305 304 304 303
298 298 298 298 298 298 298 299 299 300 299 300 300 300 301 301 301 303 303 301 302 306 306 304 303 304 304 302 302 303 303 304 304 305 305 306 306 307 307 307 306 305 305 306 307 308 309 311 312 313 315 315 314 313 312 313 314 314 314 314 318 318 315 313 311 312 312 311 311 310 309 308 306 306 307 307 308 308 309 307 306 306 305 304 304 304 303 303
298 298 298 298 298 298 298 298 299 299 299 300 300 300 302 303 302 303 304 302 302 306 306 303 302 303 304 302 302 303 303 304 305 304 305 306 306 307 307 308 307 307 308 308 309 310 311 311 312 314 315 315 315 313 311 312 313 312 312 315 318 316 313 311 310 310 309 308 308 307 307 306 305 305 306 306 307 307 309 309 307 305 305 304 304 303 302 302
298 298 298 298 298 298 298 298 299 299 299 299 299 301 303 305 307 305 304 303 302 303 304 303 302 302 302 302 302 303 303 304 304 304 304 305 306 307 308 309 309 310 310 309 309 311 311 311 313 314 314 315 314 314 313 312 311 311 312 316 315 313 311 310 308 307 307 306 306 306 306 306 306 305 305 305 306 306 307 308 308 307 304 303 303 302 302 302
298 298 298 298 298 298 298 298 299 298 299 299 299 301 304 306 308 304 303 305 303 303 303 303 303 302 302 303 302 302 303 304 304 304 304 305 306 307 308 309 310 311 310 308 309 311 311 312 312 313 312 312 312 312 313 312 310 312 313 313 311 310 308 307 306 306 306 306 305 306 306 305 305 305 305 305 304 304 305 305 307 307 305 303 302 302 302 301
298 298 298 298 298 298 298 298 299 298 299 299 299 303 304 304 306 304 304 306 302 302 304 302 302 302 301 303 302 302 304 304 303 304 304 305 307 308 309 309 309 309 309 309 310 311 311 311 311 311 310 310 310 312 312 311 311 312 312 311 310 309 308 307 306 306 306 306 305 305 305 305 305 305 304 304 304 304 304 304 304 305 305 303 302 301 301 301
298 298 298 298 298 298 298 299 299 300 300 299 301 304 304 302 303 303 303 306 302 300 302 302 301 301 301 302 302 302 304 303 303 304 304 305 307 308 309 309 308 308 309 309 309 309 309 310 309 309 310 310 311 313 312 311 313 313 312 312 311 309 308 307 306 305 305 306 305 305 305 305 305 304 304 304 304 303 303 303 303 303 303 302 301 301 301 300
297 297 298 298 298 298 299 300 301 302 302 300 301 303 302 301 301 301 302 305 302 300 301 302 301 300 300 301 301 303 304 303 303 304 304 305 306 308 309 308 308 308 308 309 308 309 309 309 308 308 310 310 312 312 313 313 314 316 315 312 311 310 308 308 306 305 305 305 305 305 305 305 305 304 304 304 304 304 304 303 303 303 302 302 301 301 300 300
297 297 297 297 298 298 299 302 302 303 304 302 301 300 301 300 300 300 303 305 301 299 300 301 301 300 299 300 301 303 305 303 303 304 304 305 306 308 309 308 308 308 309 309 309 309 309 308 307 308 309 311 312 311 312 314 314 316 316 313 311 309 309 308 306 305 305 305 306 305 306 306 305 305 304 304 304 303 303 303 303 303 302 302 301 301 300 300
297 297 297 297 297 298 302 304 302 302 305 305 301 300 300 299 299 300 304 306 300 297 299 300 300 300 299 301 302 303 305 303 303 304 304 304 305 308 309 307 308 309 309 309 308 308 308 307 307 309 309 310 312 311 311 314 314 314 315 314 311 309 308 307 306 307 306 307 307 306 308 307 306 305 305 304 304 304 303 303 303 302 302 301 301 300 300 299
297 297 297 297 297 298 303 305 301 303 306 305 302 301 300 299 299 299 304 305 298 296 299 300 300 300 300 302 302 303 304 303 303 304 304 303 305 308 308 307 308 308 310 309 307 307 306 306 307 309 310 310 310 310 311 313 314 314 314 314 311 309 308 308 308 310 310 310 309 306 308 307 306 305 305 304 304 304 304 303 302 302 301 300 300 299 298 298
297 297 296 297 297 298 302 303 301 302 303 302 301 299 298 299 298 299 304 303 297 297 298 300 301 300 301 303 302 303 304 303 303 304 304 303 304 307 307 306 307 307 308 308 307 306 305 305 306 307 309 309 309 310 310 312 314 315 314 313 311 309 309 311 312 312 311 309 308 306 306 306 305 305 304 304 304 304 304 304 303 302 301 300 299 299 298 298
298 297 296 297 297 298 300 301 302 302 300 298 297 296 298 299 298 301 305 299 296 298 299 299 301 300 301 303 302 303 303 303 304 304 303 303 304 306 306 305 306 306 306 307 307 306 305 305 305 306 307 308 309 309 310 312 313 314 315 313 310 310 311 314 315 313 310 309 308 307 306 307 306 304 304 305 305 305 305 304 304 303 302 300 299 299 298 298
298 297 296 296 297 298 300 302 303 302 298 296 296 297 298 298 299 304 304 298 296 298 299 300 301 301 302 302 302 303 302 302 303 304 303 303 303 304 305 304 305 306 305 306 306 306 306 305 305 304 305 307 308 308 311 313 312 313 315 314 312 312 312 312 312 311 310 311 310 308 307 307 307 305 304 305 305 305 305 304 304 303 303 301 300 299 299 298
298 298 297 296 297 298 300 303 303 299 296 295 297 297 297 299 303 303 301 298 298 298 299 301 301 302 302 302 302 302 302 302 302 303 303 303 302 302 303 303 303 305 305 304 304 305 305 305 304 304 303 305 307 308 312 314 312 312 315 313 312 312 312 311 312 311 311 310 308 306 306 307 307 305 303 304 304 304 304 304 304 304 303 302 301 300 298 297
298 297 297 297 297 298 299 300 299 296 295 296 297 298 300 303 303 301 299 298 300 300 300 300 301 301 302 302 302 302 302 302 301 302 302 302 302 301 302 303 303 305 305 303 303 303 303 303 304 304 303 303 307 308 310 312 311 312 312 311 312 312 311 312 312 312 313 310 307 305 305 306 307 305 303 303 303 303 303 304 304 304 304 303 301 300 298 297
298 297 297 298 298 298 299 298 296 295 295 295 297 301 304 302 300 299 299 299 298 299 299 300 301 301 302 302 302 302 302 302 301 302 301 301 301 301 302 302 302 305 305 303 303 302 302 302 302 304 303 303 306 308 308 310 310 310 310 309 312 312 310 311 313 312 312 311 307 305 305 306 305 303 302 302 302 302 303 303 304 304 304 303 302 300 299 298
298 297 297 299 299 299 298 296 295 296 295 295 299 305 303 300 298 297 299 299 298 299 300 300 301 301 302 302 302 302 302 302 301 301 301 301 301 301 301 301 301 303 304 303 302 302 303 303 302 303 303 302 305 306 308 310 309 310 310 310 311 309 308 311 311 310 310 309 307 306 306 305 302 302 302 302 302 302 302 303 304 304 304 304 302 301 299 298
298 297 298 299 299 299 297 296 296 296 297 299 304 305 301 299 298 298 299 300 300 300 300 300 301 301 302 302 301 302 303 302 301 301 300 300 300 300 301 301 301 302 303 304 302 301 303 303 303 303 302 302 304 305 306 307 308 309 309 310 311 311 310 311 311 311 311 309 308 308 307 305 303 302 303 302 302 302 302 302 303 304 304 304 303 301 299 298
297 297 299 300 298 297 296 297 298 298 300 303 304 302 300 299 298 299 300 300 300 300 300 300 301 302 301 301 301 302 302 302 302 301 300 299 300 300 300 300 301 301 302 304 302 301 301 301 303 304 302 302 303 304 305 306 308 309 309 311 311 310 310 311 311 311 310 310 309 308 306 304 302 301 302 303 302 302 302 302 301 302 303 304 303 301 299 298
298 300 301 300 297 297 297 298 300 301 304 305 302 299 299 299 299 300 300 300 300 299 300 300 300 301 301 300 300 301 301 302 301 301 301 300 300 300 300 300 301 301 302 303 302 302 302 301 302 304 303 301 302 303 304 305 308 309 309 309 308 308 310 311 311 309 309 311 309 305 304 304 303 302 302 302 302 301 301 300 299 299 300 302 303 301 299 298
299 302 302 299 296 297 298 298 300 304 304 303 301 299 298 298 299 299 299 299 299 299 300 301 300 301 301 300 300 300 300 301 301 301 301 300 300 300 299 300 301 301 301 302 302 303 302 301 301 304 304 302 302 303 304 304 306 308 306 306 306 307 309 310 310 308 309 310 307 305 306 305 305 305 303 302 302 301 301 300 298 298 298 300 302 302 299 297
298 301 301 298 297 298 299 299 301 305 304 301 300 299 297 298 298 298 297 297 298 300 300 300 301 301 300 300 300 300 300 301 301 301 301 300 300 300 299 300 301 301 300 302 302 301 302 301 300 303 304 302 301 302 303 303 304 307 306 306 308 309 309 309 309 308 308 309 307 306 307 306 306 305 302 302 303 301 301 301 299 298 297 298 300 301 299 297
300 303 303 299 296 298 300 301 301 304 304 302 301 299 296 298 299 297 297 297 298 300 300 300 301 300 300 300 300 299 300 300 299 300 301 300 300 300 299 299 300 300 300 302 301 299 302 302 301 303 304 302 301 301 302 302 303 305 305 305 306 306 306 307 307 307 307 308 308 307 306 306 306 304 302 302 303 301 302 301 300 298 297 297 298 300 299 297
302 304 305 298 296 299 301 301 300 301 301 300 299 296 294 298 300 298 297 297 298 299 300 300 300 299 300 299 299 299 299 299 298 298 299 299 299 300 299 299 300 299 299 301 300 299 302 303 302 303 303 303 301 300 301 301 302 303 303 303 303 304 305 304 303 304 305 306 308 307 306 306 304 302 303 302 302 302 301 301 301 300 298 297 297 299 299 297
302 305 305 298 297 300 301 302 301 300 299 297 297 296 295 298 299 298 298 297 298 299 299 300 300 299 299 299 299 298 298 298 298 297 298 299 299 299 298 299 299 299 299 300 300 300 302 303 303 303 304 303 301 299 300 300 301 302 302 302 302 303 305 305 301 300 302 304 305 304 304 306 303 301 303 302 301 302 301 301 301 300 298 297 296 298 298 297
303 305 303 298 298 300 302 302 301 300 299 297 296 296 297 298 298 299 299 298 299 299 298 299 299 299 299 298 299 298 298 298 298 298 297 298 299 297 298 299 299 298 298 298 299 300 299 301 303 303 303 303 301 300 300 299 300 302 302 301 301 302 304 305 303 302 302 303 304 302 302 304 302 301 302 302 302 302 301 301 301 300 299 297 296 296 297 297
304 303 301 299 297 299 303 303 300 298 296 294 294 295 297 298 299 299 298 299 299 299 299 298 298 299 298 298 299 299 298 298 298 298 297 298 299 298 298 300 299 297 297 297 299 300 299 300 303 303 302 302 300 300 300 300 300 302 301 300 302 302 302 302 302 302 303 304 304 303 303 303 302 302 302 302 301 301 301 301 301 301 300 298 296 296 296 297
303 301 302 300 296 300 307 305 300 298 296 296 296 296 297 297 299 299 298 299 299 299 299 298 298 299 297 297 298 298 298 299 298 298 298 298 298 298 299 300 298 296 297 297 298 300 300 300 302 304 304 304 304 303 303 302 301 301 299 300 301 301 300 301 301 301 302 303 302 301 303 305 303 302 301 301 301 300 300 301 301 301 301 299 296 295 295 297
302 302 303 300 298 301 305 303 300 299 298 299 299 298 298 298 298 299 299 299 298 298 299 298 298 298 297 297 297 297 298 298 298 298 297 297 297 297 298 299 298 296 297 297 298 299 299 298 299 304 305 304 305 306 304 302 301 301 299 299 301 300 300 302 302 302 302 302 300 300 303 304 302 301 301 301 301 301 300 300 300 300 301 299 296 296 295 296
304 304 304 303 300 300 302 301 300 299 299 300 300 298 299 299 298 298 299 299 299 298 298 297 297 298 299 298 297 297 298 297 297 298 297 297 297 297 298 299 298 297 296 296 297 298 299 297 296 299 302 302 302 302 300 300 300 301 300 299 300 300 300 300 302 302 302 301 302 302 302 302 302 301 301 301 301 301 300 300 300 300 301 300 297 296 296 295
304 304 302 303 303 302 301 300 300 300 300 301 300 299 299 299 299 298 298 299 299 298 297 297 298 298 298 298 298 298 298 297 297 297 297 297 297 297 298 299 298 297 296 295 296 298 300 299 296 295 297 298 298 299 299 299 299 300 300 299 299 299 299 300 302 302 301 302 305 304 301 302 303 301 300 301 301 301 301 301 300 300 300 300 297 296 295 295
302 301 296 297 302 304 302 300 300 300 300 299 298 299 300 300 299 299 299 298 297 297 298 299 298 297 297 297 298 298 297 297 297 297 297 297 296 297 298 298 297 296 295 295 296 297 300 301 298 296 297 296 296 297 298 298 298 298 298 299 299 299 299 300 301 301 300 302 305 303 301 301 301 300 300 300 300 301 301 301 300 299 299 299 297 296 295 295
299 299 296 296 299 300 300 300 299 299 300 299 298 299 300 300 300 300 299 298 297 296 298 299 298 297 296 296 297 297 297 298 298 297 297 297 297 297 297 297 297 296 295 296 296 296 299 300 298 297 298 299 298 297 297 297 298 298 298 299 299 299 300 300 300 300 300 301 301 300 299 300 299 298 299 299 299 301 301 300 299 298 299 299 298 297 295 295
300 300 299 298 298 298 297 299 299 300 299 299 300 299 299 300 301 299 297 298 298 297 297 298 298 296 296 295 296 296 296 297 297 296 297 297 297 296 296 296 296 295 295 295 296 297 299 300 299 298 300 301 299 297 298 298 298 298 298 298 298 299 299 299 299 299 300 300 299 299 299 299 297 298 299 299 299 300 300 299 298 298 299 299 298 297 296 295
299 299 299 301 300 298 298 299 299 300 300 300 302 300 298 300 300 299 298 298 298 299 298 297 297 296 296 295 295 295 295 296 296 296 295 296 296 295 295 295 294 294 294 294 295 297 298 298 299 300 301 301 299 297 298 298 298 299 298 297 297 297 298 298 298 299 300 300 300 300 300 299 298 299 301 301 300 301 301 299 299 299 299 299 298 297 296 295
297 297 298 302 301 298 299 299 298 301 302 301 301 299 298 300 299 298 299 298 298 298 297 297 297 296 296 296 295 295 295 294 293 293 293 294 294 293 294 294 294 293 293 293 295 296 296 297 299 300 301 301 300 299 298 298 301 303 302 300 298 297 297 297 298 299 299 299 300 301 301 299 299 301 301 301 301 301 300 300 299 299 299 299 298 297 296 295
Wind_Speed
19 19 18 19 18 18 17 17 17 17 18 17 16 16 17 17 18 18 19 19 19 20 21 22 21 20 21 21 22 22 20 18 15 8 9 10 11 14 17 18 18 18 18 17 16 16 11 8 9 9 7 5 4 4 6 7 5 4 5 6 7 8 7 6 6 5 2 2 4 5 7 9 7 5 3 3 4 7 8 9 10 13 13 13 15 16 15 14
19 19 19 19 19 18 17 17 17 17 17 17 16 16 17 17 18 19 19 19 19 20 21 21 20 20 21 21 20 21 19 16 14 7 11 12 15 16 17 17 17 17 17 16 16 15 9 8 8 5 5 4 4 5 6 6 6 6 4 6 7 7 8 7 7 6 2 2 7 10 13 14 11 9 5 4 13 13 12 11 10 12 13 13 14 15 15 13
19 20 20 20 19 18 17 17 17 17 17 17 16 17 17 18 18 18 19 19 20 21 21 20 18 19 20 19 19 19 17 14 9 5 12 16 18 18 18 17 16 16 16 15 15 14 11 11 11 6 3 4 4 6 7 6 7 6 5 6 7 7 9 10 11 7 3 2 7 10 15 16 13 11 7 7 16 17 14 11 11 12 12 12 11 13 15 13
20 20 19 19 19 19 18 18 18 17 18 18 18 19 18 19 19 19 19 19 20 20 20 19 17 19 19 18 18 17 13 10 3 6 15 19 19 20 20 18 15 15 15 15 16 15 12 12 11 7 5 5 5 7 8 7 6 5 7 7 6 7 8 11 14 10 7 4 6 9 14 14 12 13 12 12 14 12 11 10 10 11 12 12 10 11 14 14
20 20 19 18 18 18 19 19 19 19 20 19 19 19 18 19 18 19 20 19 19 18 18 18 17 18 17 17 17 16 10 3 4 10 17 19 19 21 21 19 15 13 15 15 16 15 12 11 9 7 5 5 6 7 8 10 7 5 9 8 6 8 8 9 12 14 12 7 10 9 12 10 10 13 14 17 13 9 9 10 11 12 13 13 13 13 14 15
19 20 20 19 18 19 19 20 20 20 20 19 18 18 18 18 19 19 19 19 18 17 18 18 17 16 15 17 17 14 7 2 9 15 18 18 19 20 20 19 15 12 13 13 14 13 10 9 8 6 5 5 7 7 8 10 9 5 7 9 10 9 5 9 10 11 12 14 13 9 11 10 12 12 12 17 13 10 8 11 15 18 20 21 20 18 16 16
19 19 20 20 19 19 19 19 20 20 18 18 18 18 19 19 19 19 19 19 18 17 18 16 15 14 16 19 14 8 3 5 15 19 18 18 19 19 19 18 14 11 11 12 11 10 8 8 8 6 5 6 7 9 9 10 11 8 6 9 12 10 5 5 4 9 15 18 13 11 13 13 16 12 11 14 11 12 10 15 19 22 24 25 22 19 19 21
19 20 20 19 19 19 19 19 19 18 17 17 17 18 19 18 18 18 19 19 18 18 16 14 14 14 15 16 10 3 0 9 19 20 18 18 19 19 18 17 12 9 11 10 9 9 9 9 9 6 6 6 7 9 9 9 11 10 8 7 9 7 1 4 7 16 19 16 15 17 15 14 15 13 14 13 7 9 12 18 19 19 21 22 20 20 19 21
20 20 20 19 19 19 20 19 18 17 16 17 18 18 17 17 16 17 19 20 20 18 15 14 13 14 12 9 8 3 4 15 20 18 18 18 20 19 16 15 10 8 11 9 8 10 9 7 7 5 5 6 7 9 10 9 7 10 10 6 7 6 4 5 7 15 16 11 17 21 16 13 9 10 14 10 5 6 15 19 17 18 19 18 18 19 19 20
20 20 19 18 18 19 19 18 16 15 16 18 19 20 19 19 17 16 17 19 20 18 16 14 14 14 11 8 7 3 9 20 19 17 19 18 19 18 14 13 10 9 9 8 7 9 9 9 10 6 6 6 7 8 9 9 3 8 9 5 9 5 4 7 11 15 13 12 22 23 17 14 11 10 10 8 6 10 17 18 16 19 18 17 17 16 19 21
20 19 17 17 18 18 17 15 14 14 16 18 20 22 22 22 21 18 15 16 19 18 15 13 14 15 11 9 5 5 15 21 18 18 18 17 17 16 14 11 10 8 6 7 9 12 13 14 16 8 4 4 6 7 5 4 1 8 12 5 9 6 6 6 13 15 11 11 22 25 20 17 14 11 9 9 11 12 17 19 17 18 16 17 17 15 18 20
19 18 16 17 17 16 14 13 12 12 15 18 20 22 24 24 25 22 15 14 16 18 16 13 14 13 10 7 2 9 21 22 18 19 17 16 16 15 14 10 8 5 2 4 9 17 16 14 17 10 6 4 5 5 2 1 2 8 12 8 9 9 8 4 8 14 12 9 14 20 18 16 14 12 11 9 11 14 20 20 16 17 15 15 16 14 16 20
18 17 16 16 17 15 12 10 9 10 11 14 16 19 23 24 26 25 19 15 14 17 16 12 13 10 6 3 3 15 25 23 19 18 17 17 16 14 11 8 4 1 2 3 10 17 17 13 13 10 10 7 3 2 3 2 5 7 10 8 8 8 4 4 4 8 11 8 7 13 9 8 12 13 13 9 9 17 20 18 15 14 13 13 14 13 15 20
18 17 16 16 16 13 11 9 8 8 7 9 12 15 19 22 25 26 24 17 13 16 16 12 12 8 4 2 7 20 25 22 19 18 19 18 16 13 10 7 3 3 6 8 13 14 14 15 14 10 9 7 4 2 4 5 5 6 10 8 5 5 3 6 8 2 5 5 12 18 9 5 11 13 14 11 10 18 18 16 16 14 13 13 13 14 15 19
17 16 16 16 15 13 11 9 9 10 10 12 12 14 16 17 21 23 26 22 12 13 17 16 12 6 3 2 9 23 24 21 21 20 19 17 14 11 10 7 7 9 7 8 13 13 14 14 10 6 4 6 6 3 6 5 3 5 7 7 5 5 5 9 14 4 7 8 16 21 9 6 12 13 12 10 11 18 17 16 16 15 16 14 12 14 14 17
16 16 16 16 15 14 12 10 11 12 14 16 15 17 17 13 14 17 25 25 14 10 15 21 17 3 2 6 14 23 21 20 24 22 19 15 11 10 9 7 9 8 8 13 15 14 14 10 5 3 2 4 5 5 5 4 4 5 5 5 7 8 6 6 12 7 10 11 13 18 11 7 11 11 11 11 14 19 17 15 15 14 16 15 12 12 13 14
15 16 16 15 15 14 13 11 11 11 14 15 15 18 15 10 10 11 21 25 16 8 7 22 25 3 3 12 18 17 18 23 25 22 21 17 10 8 6 6 6 6 13 16 16 11 9 5 3 2 2 3 4 5 6 5 5 5 5 5 8 11 8 7 7 8 14 18 16 19 16 12 12 12 14 13 15 19 17 15 15 13 13 13 12 12 13 14
15 16 16 15 14 15 14 14 13 13 15 15 16 17 12 9 9 7 16 23 18 7 2 15 24 4 1 16 17 15 22 26 23 23 26 21 15 8 2 2 4 7 9 9 7 6 4 2 1 0 1 2 2 3 4 6 7 8 7 5 8 12 10 9 8 8 17 21 18 18 17 16 15 14 15 14 15 18 16 13 13 13 13 11 11 13 13 14
16 16 16 14 14 14 15 16 17 17 17 17 18 15 9 8 6 2 14 20 14 8 3 8 14 5 5 14 14 20 27 24 19 24 29 26 20 8 3 5 6 5 4 1 3 2 1 3 3 1 1 3 3 4 2 5 9 11 6 9 12 11 11 11 12 13 19 21 16 17 17 16 17 15 15 14 15 17 14 12 11 11 12 10 11 11 12 13
16 17 17 14 13 13 15 16 17 19 19 19 18 11 6 6 2 1 11 13 8 7 5 7 9 6 7 11 13 24 28 23 20 22 28 28 21 9 3 4 5 3 2 4 7 4 2 6 4 3 2 5 7 7 8 9 8 11 13 16 16 14 12 12 12 11 18 20 12 16 20 18 18 16 14 13 14 16 15 14 12 10 10 10 11 12 12 12
16 17 17 14 12 12 14 15 16 19 18 18 16 8 4 4 2 1 6 5 10 10 7 9 11 9 11 11 14 23 19 17 20 21 31 31 19 10 1 1 1 2 5 7 6 1 2 6 6 6 6 10 8 8 11 8 14 18 15 14 13 13 11 12 12 9 17 20 11 16 22 18 17 15 13 14 15 15 13 13 13 11 11 9 11 12 11 9
15 16 16 15 12 11 12 14 17 17 16 17 16 9 4 3 1 1 3 1 9 15 10 11 14 12 17 17 19 24 12 12 19 20 30 29 16 11 5 4 6 6 6 6 5 3 5 7 7 8 8 5 7 10 9 9 19 15 12 12 10 12 13 13 13 10 14 16 10 16 21 16 15 15 13 14 14 12 11 12 12 11 11 10 10 10 9 9
15 16 16 15 13 10 10 12 15 15 14 16 14 8 3 2 1 0 1 3 4 13 10 10 13 12 17 17 23 25 10 11 15 15 26 23 11 10 7 7 9 9 10 8 7 6 6 7 11 8 4 8 12 14 14 13 13 7 8 11 9 11 12 10 10 10 13 14 14 17 17 11 11 12 13 13 11 11 11 11 10 10 11 10 9 9 10 11
16 16 15 15 13 10 9 9 11 10 9 11 11 7 2 1 1 1 1 3 2 9 11 10 9 10 12 14 21 18 5 9 11 13 23 18 9 9 6 8 9 10 10 10 11 10 10 12 12 8 11 10 10 14 14 9 9 8 6 8 10 11 12 13 14 14 16 15 16 17 13 7 8 9 10 9 9 10 9 9 10 9 9 8 8 9 10 11
16 17 17 16 14 10 8 6 9 9 5 5 8 8 4 3 1 2 2 1 2 7 12 12 8 11 16 18 20 13 3 7 10 12 20 18 11 6 4 6 6 8 9 10 11 9 12 16 12 13 14 13 11 12 14 7 6 7 7 5 9 16 17 19 19 15 11 7 8 11 9 4 6 8 8 6 8 9 8 9 9 9 8 8 8 9 9 10
16 18 18 17 15 11 6 3 9 11 5 3 5 6 7 6 1 2 2 0 3 7 11 12 8 13 19 17 18 13 4 7 11 16 24 24 14 3 3 4 3 6 5 5 6 4 9 16 15 14 12 13 13 11 14 9 4 6 5 5 9 20 20 19 16 9 6 5 5 9 9 6 5 7 8 7 8 9 8 9 9 8 8 8 8 8 9 9
15 18 20 18 16 13 5 3 10 10 3 2 9 11 8 3 2 3 2 1 4 6 8 9 7 12 17 15 15 10 3 7 12 15 22 25 18 7 8 8 4 7 4 1 5 3 9 15 16 14 12 11 11 9 12 8 5 3 5 3 13 21 17 14 10 6 6 7 10 11 11 8 5 5 7 6 7 8 8 8 8 7 8 8 8 8 8 9
14 18 21 19 16 13 6 6 10 6 5 10 15 11 3 2 3 2 1 3 4 5 5 6 8 11 14 13 13 9 5 8 8 11 18 25 21 8 8 12 9 12 9 5 6 3 8 12 13 13 10 9 7 6 9 8 5 2 8 2 14 15 12 9 5 4 8 9 8 7 8 7 4 4 4 5 6 6 7 7 7 7 7 7 8 8 8 8
14 16 20 21 17 13 8 6 6 7 12 16 11 4 2 4 2 1 2 2 2 4 3 6 9 11 12 11 12 10 8 8 7 8 14 20 22 11 4 7 8 11 12 10 9 4 5 6 8 10 8 6 7 7 7 7 4 3 8 4 9 7 8 9 6 5 7 7 4 2 5 5 3 3 3 3 4 4 5 5 5 6 6 6 7 7 8 7
14 15 19 22 18 15 12 5 5 13 18 14 5 2 3 2 1 2 4 2 1 3 4 5 6 10 13 11 10 11 11 10 8 9 10 11 18 16 4 1 6 6 8 11 10 8 6 4 5 8 8 6 6 7 6 5 4 3 6 4 7 3 6 7 5 5 6 5 4 3 6 7 3 2 2 2 2 3 4 4 4 5 6 6 6 6 7 6
13 15 17 20 18 17 12 6 11 19 16 8 2 2 1 1 2 4 3 1 1 4 5 5 7 11 13 10 8 11 10 11 11 11 11 10 13 16 9 5 7 3 6 8 7 9 11 9 5 5 10 10 6 5 6 7 5 3 2 4 5 3 5 5 3 4 5 2 1 5 8 7 4 3 2 3 3 3 4 4 4 5 5 6 5 6 6 6
12 14 16 18 19 16 12 12 18 18 11 5 2 2 1 2 5 4 2 3 3 4 5 5 9 11 11 9 8 10 8 8 11 11 10 9 8 10 10 8 7 3 5 5 4 6 8 10 10 7 9 14 8 4 6 8 7 5 3 4 4 3 3 3 3 4 4 1 1 4 7 6 4 2 3 4 4 4 4 4 4 4 5 5 5 5 5 5
12 13 15 18 18 17 17 18 18 14 9 6 2 1 2 4 4 2 3 4 2 3 4 5 10 12 9 8 8 9 7 7 10 10 8 7 7 8 9 12 11 5 3 5 4 5 4 8 14 10 7 11 10 5 4 5 7 6 4 3 2 3 3 3 3 2 2 2 3 5 5 4 2 1 4 4 3 4 4 4 4 5 5 5 5 5 5 5
12 12 14 17 17 18 21 19 15 13 9 5 2 3 6 6 3 0 1 3 1 3 4 5 10 10 6 7 6 6 5 6 9 8 8 9 8 7 9 13 16 8 3 4 4 5 4 5 10 9 5 8 9 6 1 3 5 4 2 3 3 2 2 3 3 2 3 2 3 5 4 3 2 1 4 5 4 4 4 4 5 5 5 5 5 5 5 5
12 11 12 15 17 19 20 16 15 16 10 3 3 6 6 4 1 1 2 3 2 3 7 7 7 6 4 6 6 7 4 4 9 7 7 9 8 8 8 9 15 12 5 4 3 3 5 3 6 5 4 7 8 5 3 3 3 4 3 5 4 2 2 2 3 4 5 3 2 3 3 2 2 1 3 4 4 4 4 5 5 4 4 4 5 5 4 3
11 11 10 14 20 20 17 14 16 17 10 2 6 7 4 2 2 2 3 5 3 4 9 7 3 4 5 5 6 10 7 4 8 6 4 6 7 9 8 6 11 12 7 4 3 2 4 2 5 6 5 8 8 5 6 6 1 2 5 3 2 2 1 3 4 4 5 4 3 1 1 2 2 1 3 4 4 5 5 5 5 4 3 4 4 4 3 3
10 9 7 14 22 19 14 12 15 14 7 4 8 5 1 2 3 4 5 6 4 5 6 4 4 5 6 4 5 11 11 6 7 6 4 4 5 8 8 5 8 11 8 5 1 1 2 1 4 7 6 8 9 5 4 10 5 1 3 2 3 1 2 2 2 2 3 4 2 2 3 3 2 2 4 5 5 5 5 5 5 4 3 3 4 4 3 3
9 6 4 14 21 16 12 10 11 9 3 6 9 5 1 1 3 4 4 5 4 4 3 3 3 4 5 4 5 9 10 6 6 6 4 4 3 6 9 5 6 11 11 7 2 1 2 1 3 7 5 5 9 6 3 10 10 3 2 3 0 3 2 3 2 1 2 3 1 2 4 4 4 4 6 7 7 6 6 5 5 4 3 3 2 4 4 2
6 4 2 15 18 12 13 13 9 6 3 6 6 4 2 2 2 2 2 4 3 3 3 2 1 4 4 4 4 7 8 6 6 5 3 4 2 4 10 7 7 12 13 8 3 2 3 1 1 6 7 4 5 7 4 7 10 5 3 4 2 2 1 1 1 1 2 3 2 2 2 2 2 5 8 8 7 6 6 5 5 4 4 3 2 2 3 2
4 1 1 15 15 8 13 17 13 7 5 5 3 2 0 1 1 3 2 3 2 1 3 3 2 4 3 3 3 4 5 5 6 4 3 5 2 3 9 9 8 12 13 7 5 3 4 2 1 5 8 5 3 4 3 4 6 6 5 5 5 3 1 2 1 1 2 2 2 3 1 2 1 2 6 8 6 6 5 4 4 4 4 4 2 2 3 2
2 1 2 14 11 5 10 13 9 5 4 4 3 2 0 2 2 4 2 1 2 1 2 3 4 4 3 2 3 4 4 4 5 4 3 5 4 2 7 9 9 11 9 5 5 5 3 2 2 3 5 4 2 1 2 3 4 3 4 4 4 4 2 2 2 1 1 2 2 2 1 2 1 1 4 6 5 5 5 3 3 4 5 4 3 2 3 3
1 1 4 13 10 7 9 7 4 4 3 2 2 2 1 1 1 2 2 1 1 1 1 2 3 4 3 2 2 3 4 3 4 4 3 4 4 2 6 9 9 9 6 3 3 2 0 1 2 2 2 3 2 1 2 3 3 2 3 4 4 3 3 2 1 2 2 1 1 1 0 2 2 1 4 5 4 4 5 4 4 3 4 5 3 2 3 4
1 0 4 13 9 3 7 6 2 4 4 1 1 0 0 0 1 0 1 2 1 1 2 2 1 2 4 2 2 4 4 3 3 3 2 3 3 3 6 9 10 8 6 4 4 2 1 2 2 1 1 2 2 3 4 2 2 2 3 5 4 4 3 1 1 1 1 1 1 1 0 3 3 1 4 4 4 3 4 5 5 4 4 5 4 3 3 3
1 1 3 13 10 1 3 4 3 3 2 1 1 1 1 1 1 2 1 2 2 2 2 1 1 2 3 3 3 4 4 2 3 4 3 3 2 3 6 8 9 8 5 3 4 4 2 2 2 1 2 2 2 4 5 3 3 2 2 4 4 4 6 2 1 1 1 0 1 2 1 3 2 2 2 3 4 4 5 6 6 5 5 4 4 3 3 3
1 1 1 11 15 8 3 1 4 5 3 3 3 2 1 1 1 2 2 1 1 1 1 1 2 2 1 1 2 3 3 2 2 3 3 3 2 2 4 7 7 7 6 5 5 4 2 2 2 2 3 2 1 2 3 3 3 2 2 4 4 5 5 3 1 1 1 1 1 2 3 2 2 3 4 5 6 6 7 6 6 5 5 5 5 4 4 4
1 1 0 5 10 8 3 2 3 5 4 4 3 1 1 2 2 0 1 1 1 1 2 1 2 2 2 0 1 1 3 3 1 2 3 3 2 1 3 5 5 6 9 10 8 4 2 3 4 3 2 1 1 2 1 2 3 3 3 4 3 2 3 2 1 1 1 2 2 3 2 3 4 6 7 7 7 7 7 6 6 5 5 5 4 4 4 4
1 1 1 1 3 4 4 3 4 3 2 1 1 2 2 3 3 1 1 1 1 1 1 1 1 1 1 2 1 1 2 1 1 2 3 4 3 1 2 3 4 8 10 9 8 4 2 2 3 2 2 4 3 5 4 4 3 4 3 4 3 2 1 1 2 3 0 2 3 3 4 4 4 4 5 7 7 7 7 6 6 5 5 4 3 3 5 5
2 1 1 0 1 2 2 2 3 3 3 2 1 1 3 3 3 1 1 1 0 2 1 1 2 4 5 3 2 2 3 1 1 2 3 4 4 3 2 2 3 8 9 6 5 3 2 1 2 1 4 7 7 6 6 4 4 4 5 5 5 4 4 4 5 4 2 2 5 4 6 5 8 7 6 6 5 5 6 5 4 3 3 3 3 5 5 5
3 2 1 2 1 2 2 2 4 5 4 3 1 0 1 3 2 2 2 1 1 2 3 1 2 3 4 3 2 2 3 2 1 1 2 3 4 3 3 1 2 6 7 5 4 1 2 0 1 1 4 7 6 5 5 5 4 5 7 7 7 7 7 7 7 6 6 7 9 8 8 11 11 9 9 9 7 5 3 3 3 3 4 5 6 6 6 6
1 2 1 2 3 3 2 2 2 3 2 1 1 1 0 1 2 2 1 1 1 1 2 1 2 2 2 3 2 2 2 2 1 2 3 3 2 2 2 0 2 6 6 4 3 2 1 1 1 1 3 5 3 2 3 4 5 8 10 8 8 8 7 8 8 6 6 9 9 6 8 12 10 7 8 9 8 5 3 4 4 5 6 7 6 6 6 6
3 3 3 3 3 2 1 1 1 0 1 1 0 1 1 1 2 3 2 2 3 1 1 2 3 1 1 1 1 1 3 3 2 2 3 2 2 2 1 0 2 4 5 3 2 3 3 1 1 2 3 4 2 2 4 6 7 9 12 11 11 9 7 6 6 6 7 7 4 2 5 8 7 4 4 5 5 4 5 5 5 6 6 7 7 6 7 6
3 2 1 1 3 1 1 1 1 1 1 1 2 2 1 1 3 2 2 2 2 3 3 2 2 0 0 0 1 2 3 4 4 4 3 3 3 2 2 2 2 1 2 2 2 2 2 2 1 2 1 4 4 4 4 6 6 5 6 6 7 8 7 6 5 7 9 7 5 4 6 6 3 1 2 3 4 5 6 6 6 6 6 6 6 6 6 6
Wind_Direction
7 6 3 0 359 356 355 353 353 350 347 347 344 345 344 342 340 338 338 336 334 331 333 336 335 334 332 333 335 336 337 333 317 331 46 23 343 334 332 330 328 328 334 334 325 317 306 286 265 230 224 219 200 218 229 234 223 214 215 203 209 207 212 220 214 213 195 158 110 53 44 67 62 40 7 325 44 78 68 61 71 71 71 73 81 90 95 98
7 7 4 3 1 357 356 354 355 353 351 351 348 345 343 342 340 340 339 336 334 331 332 334 333 331 330 332 334 337 337 324 304 331 35 4 339 337 331 332 325 323 332 330 324 322 315 304 292 244 216 221 196 200 207 210 206 213 213 205 214 205 205 230 237 222 214 107 95 63 58 59 41 21 354 45 58 49 40 29 39 63 70 69 74 84 87 89
9 7 6 5 3 0 359 357 357 354 352 351 348 347 347 346 344 342 338 335 332 332 332 332 331 326 328 330 329 338 333 311 302 352 12 352 341 338 333 334 324 319 324 319 315 311 300 296 298 295 258 242 220 200 199 191 197 212 215 217 216 204 204 220 236 239 246 148 107 82 72 62 45 32 9 58 60 43 38 25 19 40 54 59 62 74 79 80
9 6 6 5 4 2 360 357 355 353 351 352 352 351 351 348 344 341 336 334 332 331 332 329 328 324 328 327 325 338 325 302 327 358 351 347 340 337 333 333 327 319 316 312 308 300 287 282 281 270 252 251 232 212 207 191 189 199 211 227 213 208 216 213 216 217 220 184 114 88 79 71 54 48 35 46 55 41 35 31 30 41 55 65 66 70 73 72
7 5 3 1 1 360 358 356 355 356 357 357 356 354 351 348 345 342 338 337 334 332 332 330 327 326 329 324 323 331 316 289 22 350 343 341 335 333 330 327 328 323 315 310 305 295 270 261 262 248 239 249 235 220 211 200 196 200 214 230 240 222 215 224 219 204 196 122 84 71 76 81 62 51 43 46 47 33 34 38 44 49 52 57 60 63 65 63
6 4 360 358 357 356 355 355 357 0 2 1 1 359 357 356 353 350 348 345 342 337 335 333 331 333 329 323 325 323 307 6 4 345 338 334 331 330 327 323 324 325 314 304 306 300 267 246 244 238 225 232 240 225 210 205 200 210 213 216 244 252 247 251 231 190 162 105 85 78 80 85 77 60 43 47 32 3 35 56 53 49 43 42 42 45 47 46
3 1 359 357 357 356 355 355 358 4 8 9 9 8 6 5 2 359 356 351 349 343 341 338 336 337 328 328 333 314 293 8 349 338 331 329 330 327 326 322 315 316 311 302 309 307 283 256 235 232 229 227 241 233 214 204 199 216 221 196 220 246 303 293 189 120 110 104 98 88 79 74 77 70 43 46 15 347 34 61 56 53 47 44 40 35 36 36
359 357 356 358 359 0 2 0 5 13 16 16 16 15 12 9 8 6 4 1 358 354 348 347 343 337 333 333 330 295 139 350 336 331 327 328 328 326 325 319 311 312 311 301 301 308 305 274 241 227 235 229 234 231 213 205 202 209 224 198 191 201 26 32 102 95 92 101 96 79 69 66 75 78 54 45 0 347 49 63 58 58 52 49 44 36 35 34
358 356 355 358 2 6 11 11 16 22 22 24 24 20 13 5 3 0 3 3 3 1 352 350 349 339 337 324 301 294 11 338 329 326 326 327 325 324 321 317 318 316 310 305 300 305 310 285 256 250 264 261 252 239 207 207 201 191 219 208 155 153 109 89 98 97 94 97 89 75 58 46 46 71 55 24 341 29 66 68 59 60 56 53 52 45 40 37
357 354 355 0 6 12 18 21 26 29 30 33 30 26 19 10 0 348 349 355 359 359 352 348 347 343 340 322 312 353 354 336 329 326 326 325 324 323 319 316 317 312 307 315 319 306 310 315 313 308 300 289 266 256 210 208 180 172 217 205 150 140 97 109 96 91 89 86 87 80 61 41 25 56 48 352 12 61 74 71 61 61 57 55 57 54 50 45
355 353 358 4 11 17 24 29 33 37 41 41 36 31 24 17 11 357 346 352 358 354 353 351 345 347 336 323 348 14 345 337 330 328 327 327 326 321 317 312 306 306 309 324 329 312 306 313 319 317 281 267 244 254 215 214 32 183 206 173 132 92 52 105 112 104 92 88 93 86 65 41 34 44 21 8 38 54 69 66 59 60 56 55 55 53 53 49
354 356 2 10 16 21 27 31 36 43 47 46 41 34 26 20 16 9 355 351 357 353 354 354 350 350 327 317 24 356 344 338 329 329 333 332 328 321 317 314 307 315 360 348 320 305 302 305 312 306 273 273 223 226 160 190 293 207 196 149 120 92 49 40 114 113 110 114 100 84 59 31 33 31 4 22 54 54 64 61 53 56 53 53 52 51 52 48
356 360 7 13 17 22 25 26 31 37 44 43 35 28 23 19 15 14 4 345 344 352 354 349 349 350 320 324 6 347 345 339 333 335 338 335 329 325 320 320 309 357 37 303 281 288 296 296 294 289 285 290 246 217 120 203 249 200 170 140 130 117 62 6 78 115 124 134 96 80 72 36 34 25 7 13 58 62 64 60 54 53 48 49 48 49 50 45
359 3 8 14 17 19 16 11 8 5 11 13 11 10 11 13 12 12 9 352 334 351 1 350 343 331 307 9 353 346 347 343 344 342 337 335 332 332 334 351 46 28 351 292 275 278 287 289 277 276 284 271 271 294 142 189 228 184 160 150 145 129 95 30 29 73 129 96 86 88 92 77 47 28 20 13 48 65 63 58 56 55 49 47 44 46 47 42
2 4 7 10 13 15 8 355 344 337 333 331 335 343 346 358 6 9 11 1 333 343 4 1 347 316 304 43 347 344 347 347 348 337 335 341 343 346 344 13 55 8 342 264 271 278 279 287 279 270 261 238 249 227 160 172 198 184 167 165 160 125 104 45 12 345 138 92 89 95 92 88 67 41 29 21 48 65 62 55 51 52 51 48 42 42 44 40
3 2 3 4 9 13 7 351 338 330 328 325 321 325 327 335 349 3 9 1 340 334 4 6 355 319 107 9 339 343 348 346 341 335 348 4 358 355 354 47 62 352 286 253 271 280 280 282 272 274 258 232 226 182 149 153 178 189 181 170 151 117 99 58 5 349 122 95 80 96 103 94 76 57 43 34 53 63 60 55 49 47 48 49 47 43 44 40
3 0 358 360 4 11 10 1 347 338 339 336 330 330 329 323 327 353 6 4 360 341 20 15 359 323 141 357 343 346 346 338 338 346 5 12 356 348 360 72 80 282 267 272 272 265 277 267 220 250 249 244 227 178 149 166 178 173 183 175 136 111 95 88 44 35 90 91 83 91 95 88 79 71 56 42 54 62 58 51 50 49 47 46 47 45 44 41
1 358 356 357 0 7 11 9 4 358 352 346 341 338 333 324 319 343 360 6 16 13 101 16 3 2 265 345 345 344 337 330 338 358 7 6 355 350 315 181 184 232 265 284 264 228 239 230 180 208 241 290 271 201 163 173 172 170 184 160 118 102 95 99 89 80 86 87 88 88 88 86 79 72 65 54 57 65 61 53 49 49 51 47 45 47 44 43
359 358 356 354 358 6 10 15 15 8 358 349 346 343 346 336 309 350 0 3 26 38 35 359 5 35 316 329 337 338 337 336 352 7 6 360 348 336 229 238 221 223 263 280 60 45 81 77 53 41 46 5 316 292 276 209 178 167 145 102 105 98 90 96 97 99 92 82 79 86 87 84 75 68 70 67 64 68 64 59 52 48 51 49 49 49 45 46
1 360 357 353 357 4 8 16 18 14 10 2 356 355 11 356 307 93 357 1 48 48 30 4 0 26 340 325 337 344 346 353 7 9 3 356 339 314 221 230 232 227 308 57 53 9 33 72 61 40 23 305 290 290 282 245 168 120 99 97 103 101 98 104 99 96 95 86 73 83 83 76 73 67 67 70 70 71 67 64 61 52 51 49 51 53 49 50
4 0 359 355 351 358 8 15 13 14 18 17 23 37 35 7 12 14 327 7 54 34 34 15 2 21 359 338 343 345 344 355 2 4 2 358 344 328 274 184 28 56 40 65 79 330 21 65 44 6 310 290 297 297 279 214 128 99 99 107 105 107 106 102 96 90 94 92 83 86 83 74 72 69 65 67 66 66 68 71 70 63 59 51 50 52 52 52
6 1 1 356 348 349 0 12 12 13 19 27 45 63 72 68 37 310 283 296 36 23 28 14 7 14 357 350 350 344 342 360 358 0 359 357 354 353 6 38 48 55 42 67 88 28 40 48 10 328 296 323 18 347 340 100 110 102 110 111 106 112 105 95 97 100 94 95 96 86 83 78 75 74 67 65 68 71 72 74 75 72 66 57 51 49 47 47
8 4 1 355 349 342 344 6 13 13 22 35 53 63 84 115 230 249 295 246 12 18 21 16 11 7 354 349 345 342 358 18 357 352 355 358 356 345 360 42 55 56 42 48 51 45 46 3 330 324 1 52 45 16 22 70 81 79 116 117 121 124 117 112 104 94 87 100 111 91 81 75 70 75 73 68 71 76 75 76 78 76 73 68 59 52 46 42
11 8 3 356 348 341 341 1 13 16 26 39 49 45 36 182 183 144 294 250 22 9 4 10 14 9 349 330 334 336 357 20 1 351 355 2 350 329 358 40 47 51 43 40 40 47 30 347 334 19 45 43 44 29 26 59 66 49 72 105 128 125 113 115 113 104 94 106 116 95 78 64 56 64 68 68 71 71 69 70 71 68 72 75 64 56 50 45
11 10 7 2 353 344 339 357 16 13 12 31 41 32 347 321 78 131 269 259 16 348 354 0 4 6 344 331 342 340 319 11 2 351 357 1 346 319 359 20 33 40 31 29 37 44 16 353 0 37 34 23 41 36 16 31 88 72 39 41 127 123 111 116 123 120 111 134 141 101 86 77 76 77 71 69 67 68 66 61 63 60 57 61 58 54 49 48
7 9 8 5 359 351 339 351 3 353 353 50 27 345 316 316 80 142 242 113 25 349 352 347 341 358 348 341 348 338 324 357 347 359 8 4 355 335 26 15 49 36 17 17 37 52 6 2 14 30 28 23 37 31 8 11 83 92 15 342 119 121 121 130 134 128 126 146 122 101 107 115 109 99 93 95 79 71 69 62 61 57 53 51 50 52 46 43
2 5 6 6 5 6 7 340 345 348 12 348 318 313 307 302 145 170 248 78 33 347 340 335 330 349 346 343 347 349 10 329 330 7 15 10 6 10 35 36 54 38 8 16 49 18 1 13 15 17 23 29 36 20 356 360 67 85 317 324 125 129 134 141 138 131 117 90 71 86 110 114 107 97 93 99 91 80 71 66 64 56 55 54 49 51 48 40
357 0 3 4 7 13 11 337 343 1 352 317 313 316 311 113 142 191 33 54 14 338 335 336 331 335 336 343 359 24 39 338 340 10 11 20 20 7 28 26 37 50 31 44 79 27 8 24 14 10 22 30 21 353 343 358 66 47 319 37 132 138 129 107 76 91 98 91 89 100 105 97 102 108 84 77 82 82 75 69 70 62 58 58 52 49 48 43
352 356 358 0 8 14 2 341 339 340 331 323 324 337 133 119 132 232 45 50 334 332 335 342 339 335 333 346 11 24 26 12 12 1 1 23 25 16 43 16 23 60 50 51 76 53 28 38 18 18 23 12 343 332 350 14 51 349 329 58 124 125 103 84 56 73 80 82 95 125 119 103 102 107 73 65 63 69 84 77 71 71 64 59 57 50 45 42
350 354 355 359 9 8 358 357 327 326 330 328 335 71 120 123 18 24 32 29 14 335 321 343 348 339 340 355 12 7 21 28 11 5 7 20 25 23 55 37 4 57 72 61 66 59 49 44 39 33 12 348 323 327 358 12 22 348 341 76 111 100 100 96 82 75 64 60 27 29 111 111 109 110 58 73 67 47 78 81 72 76 69 60 56 54 46 38
347 352 354 358 5 4 359 346 325 327 333 331 319 30 60 8 21 64 56 351 1 336 330 346 342 339 347 5 13 355 16 30 11 18 20 12 26 24 23 18 355 15 78 62 62 57 46 33 32 31 14 6 336 332 5 359 0 10 24 93 94 76 88 91 88 67 65 103 18 39 76 80 95 143 128 112 97 62 67 74 68 71 75 69 57 55 52 39
343 349 355 357 360 4 355 330 327 331 339 343 311 301 322 48 37 45 346 319 329 339 344 337 329 334 344 5 18 357 5 30 18 24 25 17 33 32 31 27 355 359 53 41 55 54 48 41 24 12 22 18 359 344 6 358 2 19 47 80 84 91 109 105 86 63 59 89 72 60 65 63 65 104 134 126 101 78 72 73 67 63 75 75 64 58 53 44
335 343 354 358 358 356 347 338 338 341 346 347 316 294 37 68 50 9 322 339 342 319 325 317 319 324 339 8 17 360 1 29 24 23 24 28 41 34 35 28 11 9 17 12 39 35 38 40 19 6 9 14 16 28 14 346 351 8 24 40 99 134 145 123 86 70 89 59 14 32 61 85 72 80 139 126 97 92 84 81 74 64 72 73 70 65 49 45
328 334 349 0 0 350 347 351 353 351 349 335 320 19 46 64 58 340 327 339 299 288 310 324 321 319 357 32 22 9 14 21 19 27 29 28 34 22 16 18 15 11 344 4 27 23 39 35 6 4 359 355 15 43 61 285 320 326 342 27 67 86 96 128 133 129 127 109 12 8 36 123 159 155 127 115 112 113 94 88 79 66 75 77 74 67 48 41
327 335 347 359 1 353 352 358 358 356 350 330 42 45 52 68 26 350 2 328 311 314 315 317 317 323 13 28 20 26 35 7 1 22 49 40 38 20 2 6 14 11 360 4 354 10 65 58 340 358 29 5 5 6 343 331 312 301 348 37 47 353 360 81 90 105 114 106 54 14 9 93 107 89 109 122 135 130 110 98 84 73 80 84 83 73 57 43
331 339 342 355 1 359 358 0 360 0 351 359 70 59 45 66 11 355 359 335 332 323 312 310 324 354 5 1 9 9 2 0 359 3 54 55 49 29 6 359 16 17 14 13 351 1 58 41 333 356 31 19 5 336 360 21 308 290 18 32 294 298 105 86 50 74 92 79 69 71 62 71 80 131 177 170 147 135 133 117 102 96 89 92 98 94 77 57
338 334 329 354 1 2 1 359 359 2 3 52 72 69 42 65 5 347 352 338 317 300 313 343 10 360 358 354 3 356 345 347 2 3 23 31 29 18 5 356 12 15 10 2 1 42 43 294 338 5 7 5 360 329 13 28 16 47 42 296 273 19 91 101 78 71 64 72 102 179 156 151 175 167 173 178 165 160 160 136 124 121 104 103 112 111 101 76
341 321 321 356 359 4 10 6 356 352 19 69 76 91 67 23 352 346 351 341 315 300 341 35 17 4 12 357 347 349 348 353 358 2 21 20 9 13 10 353 353 1 351 339 340 8 10 326 340 5 2 352 1 360 9 7 6 68 133 281 334 84 23 12 88 132 69 85 138 212 171 173 195 180 173 184 179 170 165 145 138 135 119 117 110 107 103 82
335 295 336 358 357 11 28 37 31 15 56 68 74 96 34 344 356 13 357 335 304 304 7 47 16 10 20 10 352 345 352 7 360 352 16 10 345 25 20 355 333 346 338 337 16 310 302 39 341 355 7 2 8 24 23 345 347 13 26 346 34 99 105 55 123 172 121 126 140 146 177 218 216 175 170 176 171 160 163 159 148 143 133 124 109 110 113 100
332 228 354 355 357 15 34 49 53 38 59 60 55 99 7 283 41 51 45 350 318 320 17 20 5 3 3 27 39 357 347 11 7 3 26 8 346 43 25 7 339 337 331 341 36 351 313 28 13 347 8 21 27 21 12 347 345 358 15 13 3 350 24 79 33 69 112 132 135 117 167 266 296 154 155 155 153 152 159 166 158 151 139 125 117 132 132 132
319 149 338 354 7 24 28 48 51 30 70 76 68 99 202 259 15 44 70 360 330 355 16 7 12 21 11 9 30 3 346 4 13 17 32 18 30 40 6 357 340 331 330 347 24 19 355 3 6 359 11 32 70 360 346 359 333 334 18 11 346 348 4 40 27 7 66 89 147 137 158 226 246 52 118 131 142 153 154 169 185 165 146 137 142 166 156 157
327 130 326 350 11 43 48 60 39 22 80 86 43 83 130 198 310 10 35 342 302 288 352 8 10 25 33 1 348 357 353 359 9 15 32 30 44 23 336 342 341 337 345 351 349 19 99 311 2 41 50 72 96 328 350 8 321 316 32 15 349 7 27 62 67 311 350 56 173 141 110 249 247 92 106 126 142 154 159 177 208 199 164 152 161 192 184 175
18 168 337 350 351 41 68 75 48 33 70 107 338 192 193 216 229 97 37 342 345 359 15 30 330 2 39 14 333 353 353 358 13 22 42 30 34 17 342 346 350 352 5 3 335 336 11 2 21 62 121 101 89 325 326 9 28 17 32 21 16 20 12 21 203 284 3 42 9 65 24 268 262 102 101 123 142 161 188 196 204 220 196 163 168 201 219 204
31 245 336 4 9 125 98 80 118 92 90 155 142 151 208 313 358 72 63 353 3 9 16 57 354 357 23 2 344 358 349 1 30 26 28 16 21 27 360 358 7 10 20 17 329 326 1 18 2 356 9 11 359 340 329 338 28 47 35 20 28 20 3 346 219 21 18 352 84 99 249 263 229 155 140 169 187 202 220 210 194 209 210 177 173 198 230 240
10 257 271 17 32 65 98 96 132 126 133 147 118 96 129 126 63 41 52 67 32 350 23 71 360 342 344 319 344 5 8 33 39 4 2 4 28 56 10 2 16 14 4 358 332 321 15 23 5 59 69 42 326 315 307 311 335 1 1 5 32 35 14 5 12 11 332 306 81 178 233 246 186 190 210 217 215 218 230 219 194 202 206 185 179 202 230 248
346 21 301 16 30 52 65 27 91 118 142 148 121 94 88 110 118 346 16 82 100 38 68 71 327 290 216 209 19 33 29 39 18 330 7 3 349 58 24 10 20 4 352 354 347 335 99 66 37 69 111 180 243 259 276 336 320 279 306 336 6 39 30 42 41 230 225 319 288 230 261 284 225 208 214 219 218 222 232 219 202 212 212 191 186 212 234 245
344 18 45 32 23 52 58 33 58 103 139 143 121 133 129 117 135 187 348 26 56 26 54 124 355 11 42 18 16 59 30 39 337 332 10 8 337 344 40 26 16 1 357 359 352 347 99 63 19 20 245 242 266 289 302 327 294 255 273 296 283 282 313 106 172 213 153 7 263 270 359 326 261 238 224 222 216 215 221 217 211 214 209 194 198 232 251 261
36 95 89 351 14 62 60 58 73 75 72 75 77 123 131 135 141 128 68 65 359 336 332 129 59 54 54 21 338 3 7 39 77 2 11 7 331 325 19 36 33 16 7 4 3 29 93 31 335 310 279 264 261 271 277 278 269 261 266 265 261 258 238 215 218 221 190 198 233 293 351 302 269 281 281 265 251 228 215 202 193 196 198 205 226 246 257 266
64 100 59 357 59 75 32 62 94 85 68 74 84 56 144 150 133 80 62 105 76 346 339 21 50 54 61 32 10 33 17 17 53 357 31 12 328 337 12 1 36 25 15 10 3 53 123 52 254 225 298 287 267 248 239 243 258 262 255 248 250 251 236 231 236 223 213 235 252 280 302 285 269 265 266 271 275 261 204 149 162 204 219 223 231 241 249 257
73 106 104 73 82 74 28 45 100 109 72 32 51 38 286 170 130 98 58 32 75 356 318 8 93 76 58 33 24 39 29 22 291 317 15 8 330 21 47 320 353 357 4 26 351 312 73 78 198 126 325 300 281 230 230 246 259 264 262 248 239 250 250 245 246 227 220 246 257 262 277 280 272 254 248 252 255 244 177 168 210 223 223 230 235 239 244 253
72 110 144 116 88 54 50 74 322 199 112 336 111 134 212 212 132 114 93 32 37 55 14 89 113 106 31 18 352 3 16 12 351 348 9 353 334 26 36 15 25 351 347 18 342 327 21 44 218 32 343 296 304 311 277 281 280 275 274 258 232 227 235 239 233 212 207 221 223 211 253 262 263 268 261 248 246 236 207 211 235 236 231 232 234 239 245 253
93 128 214 97 91 343 289 136 312 344 54 17 73 109 166 127 107 96 91 61 46 54 51 78 115 208 244 147 352 33 21 358 352 355 348 320 313 324 308 320 14 13 324 341 334 350 13 338 330 31 335 286 297 291 286 314 321 296 279 257 213 204 222 244 248 227 213 197 180 199 230 244 252 340 311 273 262 250 236 228 233 240 242 239 239 245 250 256